When you browse on this site, cookies collect data to enhance your experience and personalize the content and advertising you see.
Visit our Privacy Policy to learn more. By continuing to use the site, you agree to this use of cookies and data.
  • In Hungary
  • List of Countries
  • For 7 days
  • Water Temperature
  • Satellite Maps
  • Weather Map
  • News
  • Weather Widgets
  • user-avatar
    Login

    Hourly Weather Gorіshnі Plavnі (Komsomolsk)

    Today, 20 April, Saturday

    Time Temperature Precipitation Wind Pressure Humidity
    00:00 +7°C° 0 mm 2 mps 764 mmHg 57%
    01:00 +6°C° 0 mm 2 mps 764 mmHg 59%
    02:00 +5°C° 0 mm 2 mps 763 mmHg 60%
    03:00 +5°C° 0 mm 2 mps 763 mmHg 60%
    04:00 +5°C° 0 mm 2 mps 763 mmHg 60%
    05:00 +4°C° 0 mm 2 mps 763 mmHg 61%
    06:00 +6°C° 0 mm 2 mps 763 mmHg 56%
    07:00 +8°C° 0 mm 2 mps 763 mmHg 51%
    08:00 +9°C° 0 mm 2 mps 763 mmHg 46%
    09:00 +10°C° 0 mm 3 mps 763 mmHg 41%
    10:00 +11°C° 0 mm 3 mps 763 mmHg 37%
    11:00 +13°C° 0 mm 3 mps 763 mmHg 33%
    12:00 +13°C° 0 mm 3 mps 763 mmHg 33%
    13:00 +13°C° 0 mm 3 mps 763 mmHg 33%
    14:00 +13°C° 0 mm 3 mps 763 mmHg 33%
    15:00 +13°C° 0 mm 3 mps 762 mmHg 34%
    16:00 +13°C° 0 mm 3 mps 762 mmHg 35%
    17:00 +14°C° 0 mm 2 mps 762 mmHg 36%
    18:00 +13°C° 0 mm 2 mps 762 mmHg 40%
    19:00 +12°C° 0 mm 2 mps 762 mmHg 43%
    20:00 +11°C° 0 mm 1 mps 763 mmHg 46%
    21:00 +11°C° 0 mm 1 mps 762 mmHg 47%
    22:00 +11°C° 0 mm 1 mps 762 mmHg 48%
    23:00 +11°C° 0 mm 1 mps 762 mmHg 48%

    Tomorrow, 21 April, Sunday

    Time Temperature Precipitation Wind Pressure Humidity
    00:00 +10°C° 0 mm 1 mps 762 mmHg 50%
    01:00 +9°C° 0 mm 1 mps 762 mmHg 51%
    02:00 +9°C° 0 mm 1 mps 762 mmHg 53%
    03:00 +8°C° 0 mm 1 mps 762 mmHg 53%
    04:00 +8°C° 0 mm 1 mps 762 mmHg 54%
    05:00 +7°C° 0 mm 1 mps 762 mmHg 55%
    06:00 +9°C° 0 mm 1 mps 762 mmHg 51%
    07:00 +9°C° 0 mm 2 mps 762 mmHg 48%
    08:00 +12°C° 0 mm 2 mps 763 mmHg 44%
    09:00 +13°C° 0 mm 2 mps 763 mmHg 41%
    10:00 +12°C° 0 mm 3 mps 763 mmHg 37%
    11:00 +13°C° 0 mm 3 mps 762 mmHg 34%
    12:00 +13°C° 0 mm 3 mps 762 mmHg 35%
    13:00 +13°C° 0 mm 3 mps 762 mmHg 35%
    14:00 +14°C° 0 mm 3 mps 762 mmHg 36%
    15:00 +14°C° 0 mm 2 mps 762 mmHg 36%
    16:00 +14°C° 0 mm 2 mps 762 mmHg 37%
    17:00 +14°C° 0 mm 2 mps 762 mmHg 37%
    18:00 +14°C° 0 mm 2 mps 762 mmHg 40%
    19:00 +13°C° 0 mm 2 mps 762 mmHg 43%
    20:00 +12°C° 0 mm 2 mps 762 mmHg 45%
    21:00 +12°C° 0 mm 2 mps 763 mmHg 47%
    22:00 +10°C° 0 mm 2 mps 763 mmHg 49%
    23:00 +10°C° 0 mm 3 mps 763 mmHg 51%

    Day after tomorrow, 22 April, Monday

    Time Temperature Precipitation Wind Pressure Humidity
    00:00 +10°C° 0 mm 2 mps 763 mmHg 52%
    01:00 +10°C° 0 mm 2 mps 763 mmHg 53%
    02:00 +9°C° 0 mm 2 mps 763 mmHg 54%
    03:00 +9°C° 0 mm 2 mps 763 mmHg 55%
    04:00 +9°C° 0 mm 2 mps 763 mmHg 56%
    05:00 +9°C° 0 mm 2 mps 763 mmHg 56%
    06:00 +10°C° 0 mm 3 mps 764 mmHg 53%
    07:00 +11°C° 0 mm 3 mps 764 mmHg 50%
    08:00 +12°C° 0 mm 3 mps 764 mmHg 47%
    09:00 +13°C° 0 mm 4 mps 764 mmHg 43%
    10:00 +13°C° 0 mm 4 mps 764 mmHg 39%
    11:00 +14°C° 0 mm 4 mps 764 mmHg 35%
    12:00 +14°C° 0 mm 4 mps 764 mmHg 35%
    13:00 +14°C° 0 mm 4 mps 764 mmHg 36%
    14:00 +14°C° 0 mm 4 mps 764 mmHg 36%
    15:00 +14°C° 0 mm 4 mps 764 mmHg 38%
    16:00 +14°C° 0 mm 3 mps 764 mmHg 39%
    17:00 +14°C° 0 mm 3 mps 764 mmHg 40%
    18:00 +13°C° 0 mm 3 mps 764 mmHg 43%
    19:00 +13°C° 0 mm 2 mps 765 mmHg 45%
    20:00 +13°C° 0 mm 2 mps 765 mmHg 48%
    21:00 +12°C° 0 mm 2 mps 765 mmHg 49%
    22:00 +12°C° 0 mm 2 mps 765 mmHg 51%
    23:00 +12°C° 0 mm 2 mps 765 mmHg 52%

    23 April, Tuesday

    Time Temperature Precipitation Wind Pressure Humidity
    00:00 +10°C° 0 mm 2 mps 765 mmHg 53%
    01:00 +10°C° 0 mm 2 mps 766 mmHg 54%
    02:00 +10°C° 0 mm 2 mps 766 mmHg 56%
    03:00 +9°C° 0 mm 2 mps 766 mmHg 57%
    04:00 +9°C° 0 mm 2 mps 766 mmHg 58%
    05:00 +9°C° 0 mm 2 mps 766 mmHg 59%
    06:00 +10°C° 0 mm 2 mps 766 mmHg 57%
    07:00 +12°C° 0 mm 2 mps 766 mmHg 55%
    08:00 +14°C° 0 mm 2 mps 766 mmHg 52%
    09:00 +14°C° 0 mm 2 mps 767 mmHg 48%
    10:00 +15°C° 0 mm 2 mps 767 mmHg 44%
    11:00 +16°C° 0 mm 2 mps 767 mmHg 40%
    12:00 +16°C° 0 mm 2 mps 767 mmHg 40%
    13:00 +16°C° 0 mm 2 mps 766 mmHg 40%
    14:00 +16°C° 0 mm 2 mps 766 mmHg 39%
    15:00 +16°C° 0 mm 2 mps 766 mmHg 40%
    16:00 +16°C° 0 mm 2 mps 766 mmHg 40%
    17:00 +16°C° 0 mm 2 mps 766 mmHg 41%
    18:00 +15°C° 0 mm 2 mps 766 mmHg 43%
    19:00 +14°C° 0 mm 2 mps 766 mmHg 46%
    20:00 +13°C° 0 mm 1 mps 767 mmHg 49%
    21:00 +13°C° 0 mm 1 mps 767 mmHg 51%
    22:00 +13°C° 0 mm 1 mps 767 mmHg 52%
    23:00 +13°C° 0 mm 1 mps 767 mmHg 53%

    24 April, Wednesday

    Time Temperature Precipitation Wind Pressure Humidity
    00:00 +12°C° 0 mm 1 mps 767 mmHg 55%
    01:00 +12°C° 0 mm 1 mps 767 mmHg 56%
    02:00 +12°C° 0 mm 1 mps 767 mmHg 57%
    03:00 +11°C° 0 mm 1 mps 767 mmHg 59%
    04:00 +10°C° 0 mm 1 mps 767 mmHg 61%
    05:00 +10°C° 0 mm 1 mps 768 mmHg 64%
    06:00 +10°C° 0 mm 2 mps 768 mmHg 59%
    07:00 +13°C° 0 mm 2 mps 768 mmHg 54%
    08:00 +15°C° 0 mm 2 mps 768 mmHg 49%
    09:00 +16°C° 0 mm 2 mps 768 mmHg 45%
    10:00 +17°C° 0 mm 3 mps 767 mmHg 41%
    11:00 +18°C° 0 mm 3 mps 767 mmHg 37%
    12:00 +18°C° 0 mm 2 mps 767 mmHg 36%
    13:00 +19°C° 0 mm 2 mps 767 mmHg 35%
    14:00 +19°C° 0 mm 2 mps 767 mmHg 34%
    15:00 +19°C° 0 mm 2 mps 766 mmHg 34%
    16:00 +19°C° 0 mm 2 mps 766 mmHg 35%
    17:00 +19°C° 0 mm 2 mps 766 mmHg 35%
    18:00 +18°C° 0 mm 2 mps 766 mmHg 39%
    19:00 +16°C° 0 mm 1 mps 766 mmHg 43%
    20:00 +15°C° 0 mm 1 mps 766 mmHg 47%
    21:00 +14°C° 0 mm 1 mps 766 mmHg 48%
    22:00 +14°C° 0 mm 1 mps 766 mmHg 50%
    23:00 +13°C° 0 mm 1 mps 767 mmHg 51%

    25 April, Thursday

    Time Temperature Precipitation Wind Pressure Humidity
    00:00 +13°C° 0 mm 1 mps 767 mmHg 53%
    01:00 +11°C° 0 mm 0 mps 767 mmHg 54%
    02:00 +11°C° 0 mm 0 mps 767 mmHg 56%
    03:00 +11°C° 0 mm 0 mps 767 mmHg 57%
    04:00 +10°C° 0 mm 0 mps 767 mmHg 58%
    05:00 +10°C° 0 mm 0 mps 767 mmHg 59%
    06:00 +12°C° 0 mm 0 mps 767 mmHg 54%
    07:00 +15°C° 0 mm 1 mps 767 mmHg 50%
    08:00 +18°C° 0 mm 1 mps 767 mmHg 46%
    09:00 +19°C° 0 mm 1 mps 767 mmHg 42%
    10:00 +19°C° 0 mm 2 mps 766 mmHg 39%
    11:00 +20°C° 0 mm 2 mps 766 mmHg 35%
    12:00 +21°C° 0 mm 2 mps 766 mmHg 34%
    13:00 +23°C° 0 mm 2 mps 765 mmHg 33%
    14:00 +23°C° 0 mm 1 mps 765 mmHg 31%
    15:00 +23°C° 0 mm 1 mps 764 mmHg 33%
    16:00 +23°C° 0 mm 1 mps 764 mmHg 34%
    17:00 +23°C° 0 mm 1 mps 764 mmHg 35%
    18:00 +22°C° 0 mm 1 mps 764 mmHg 39%
    19:00 +20°C° 0 mm 1 mps 764 mmHg 43%
    20:00 +19°C° 0 mm 1 mps 764 mmHg 47%
    21:00 +18°C° 0 mm 1 mps 763 mmHg 49%
    22:00 +16°C° 0 mm 1 mps 763 mmHg 51%
    23:00 +16°C° 0 mm 1 mps 763 mmHg 53%
    Show more